<?xml version="1.0" encoding="UTF-8" standalone="no" ?>
<gpx xmlns="http://www.topografix.com/GPX/1/1" creator="MapSource 6.11.6" version="1.1" xmlns:xsi="http://www.w3.org/2001/XMLSchema-instance" xsi:schemaLocation="http://www.topografix.com/GPX/1/1 http://www.topografix.com/GPX/1/1/gpx.xsd">

  <metadata>
    <link href="http://www.garmin.com">
      <text>Garmin International</text>
    </link>
    <time>2010-01-30T12:47:44Z</time>
    <bounds maxlat="50.752806" maxlon="6.220713" minlat="50.696023" minlon="6.071958"/>
  </metadata>

  <trk>
    <name>Kroenungsweg-7 Aachen-Mulartshütte</name>
    <extensions>
      <gpxx:TrackExtension xmlns:gpxx="http://www.garmin.com/xmlschemas/GpxExtensions/v3" xmlns:xsi="http://www.w3.org/2001/XMLSchema-instance" xsi:schemaLocation="http://www.garmin.com/xmlschemas/GpxExtensions/v3 http://www.garmin.com/xmlschemas/GpxExtensions/v3/GpxExtensionsv3.xsd">
        <gpxx:DisplayColor>White</gpxx:DisplayColor>
      </gpxx:TrackExtension>
    </extensions>
    <trkseg>
      <trkpt lat="50.697888" lon="6.220713">
        <ele>0.000000</ele>
        <time>2009-12-08T17:56:11Z</time>
      </trkpt>
      <trkpt lat="50.697837" lon="6.220247">
        <ele>0.000000</ele>
        <time>2009-12-08T17:56:11Z</time>
      </trkpt>
      <trkpt lat="50.698394" lon="6.219866">
        <ele>0.000000</ele>
        <time>2009-12-08T17:56:11Z</time>
      </trkpt>
      <trkpt lat="50.698867" lon="6.219517">
        <ele>0.000000</ele>
        <time>2009-12-08T17:56:11Z</time>
      </trkpt>
      <trkpt lat="50.698092" lon="6.218326">
        <ele>0.000000</ele>
        <time>2009-12-08T17:56:11Z</time>
      </trkpt>
      <trkpt lat="50.697661" lon="6.217420">
        <ele>0.000000</ele>
        <time>2009-12-08T17:56:11Z</time>
      </trkpt>
      <trkpt lat="50.697304" lon="6.216663">
        <ele>0.000000</ele>
        <time>2009-12-08T17:56:11Z</time>
      </trkpt>
      <trkpt lat="50.696811" lon="6.215601">
        <ele>0.000000</ele>
        <time>2009-12-08T17:56:11Z</time>
      </trkpt>
      <trkpt lat="50.696488" lon="6.214887">
        <ele>0.000000</ele>
        <time>2009-12-08T17:56:11Z</time>
      </trkpt>
      <trkpt lat="50.697130" lon="6.213879">
        <ele>0.000000</ele>
        <time>2009-12-08T17:56:11Z</time>
      </trkpt>
      <trkpt lat="50.697531" lon="6.213262">
        <ele>0.000000</ele>
        <time>2009-12-08T17:56:11Z</time>
      </trkpt>
      <trkpt lat="50.698602" lon="6.211905">
        <ele>0.000000</ele>
        <time>2009-12-08T17:56:11Z</time>
      </trkpt>
      <trkpt lat="50.698075" lon="6.210977">
        <ele>0.000000</ele>
        <time>2009-12-08T17:56:11Z</time>
      </trkpt>
      <trkpt lat="50.697355" lon="6.209695">
        <ele>0.000000</ele>
        <time>2009-12-08T17:56:11Z</time>
      </trkpt>
      <trkpt lat="50.696614" lon="6.208380">
        <ele>0.000000</ele>
        <time>2009-12-08T17:56:11Z</time>
      </trkpt>
      <trkpt lat="50.696023" lon="6.207334">
        <ele>0.000000</ele>
        <time>2009-12-08T17:56:11Z</time>
      </trkpt>
      <trkpt lat="50.697005" lon="6.207367">
        <ele>0.000000</ele>
        <time>2009-12-08T17:56:11Z</time>
      </trkpt>
      <trkpt lat="50.698197" lon="6.207388">
        <ele>0.000000</ele>
        <time>2009-12-08T17:56:11Z</time>
      </trkpt>
      <trkpt lat="50.699387" lon="6.207410">
        <ele>0.000000</ele>
        <time>2009-12-08T17:56:11Z</time>
      </trkpt>
      <trkpt lat="50.700549" lon="6.207426">
        <ele>0.000000</ele>
        <time>2009-12-08T17:56:11Z</time>
      </trkpt>
      <trkpt lat="50.701126" lon="6.206927">
        <ele>0.000000</ele>
        <time>2009-12-08T17:56:11Z</time>
      </trkpt>
      <trkpt lat="50.701948" lon="6.206889">
        <ele>0.000000</ele>
        <time>2009-12-08T17:56:11Z</time>
      </trkpt>
      <trkpt lat="50.702468" lon="6.206095">
        <ele>0.000000</ele>
        <time>2009-12-08T17:56:11Z</time>
      </trkpt>
      <trkpt lat="50.703464" lon="6.205843">
        <ele>0.000000</ele>
        <time>2009-12-08T17:56:11Z</time>
      </trkpt>
      <trkpt lat="50.704476" lon="6.205929">
        <ele>0.000000</ele>
        <time>2009-12-08T17:56:11Z</time>
      </trkpt>
      <trkpt lat="50.704891" lon="6.205602">
        <ele>0.000000</ele>
        <time>2009-12-08T17:56:11Z</time>
      </trkpt>
      <trkpt lat="50.705536" lon="6.203708">
        <ele>0.000000</ele>
        <time>2009-12-08T17:56:11Z</time>
      </trkpt>
      <trkpt lat="50.706389" lon="6.202571">
        <ele>0.000000</ele>
        <time>2009-12-08T17:56:11Z</time>
      </trkpt>
      <trkpt lat="50.707707" lon="6.201771">
        <ele>0.000000</ele>
        <time>2009-12-08T17:56:11Z</time>
      </trkpt>
      <trkpt lat="50.708213" lon="6.201198">
        <ele>0.000000</ele>
        <time>2009-12-08T17:56:11Z</time>
      </trkpt>
      <trkpt lat="50.708577" lon="6.201090">
        <ele>0.000000</ele>
        <time>2009-12-08T17:56:11Z</time>
      </trkpt>
      <trkpt lat="50.709083" lon="6.201031">
        <ele>0.000000</ele>
        <time>2009-12-08T17:56:11Z</time>
      </trkpt>
      <trkpt lat="50.709344" lon="6.200709">
        <ele>0.000000</ele>
        <time>2009-12-08T17:56:11Z</time>
      </trkpt>
      <trkpt lat="50.709569" lon="6.200296">
        <ele>0.000000</ele>
        <time>2009-12-08T17:56:11Z</time>
      </trkpt>
      <trkpt lat="50.709419" lon="6.198912">
        <ele>0.000000</ele>
        <time>2009-12-08T17:56:11Z</time>
      </trkpt>
      <trkpt lat="50.709820" lon="6.198381">
        <ele>0.000000</ele>
        <time>2009-12-08T17:56:11Z</time>
      </trkpt>
      <trkpt lat="50.710095" lon="6.198086">
        <ele>0.000000</ele>
        <time>2009-12-08T17:56:11Z</time>
      </trkpt>
      <trkpt lat="50.710363" lon="6.197872">
        <ele>0.000000</ele>
        <time>2009-12-08T17:56:11Z</time>
      </trkpt>
      <trkpt lat="50.710398" lon="6.197753">
        <ele>0.000000</ele>
        <time>2009-12-08T17:56:11Z</time>
      </trkpt>
      <trkpt lat="50.710510" lon="6.197480">
        <ele>0.000000</ele>
        <time>2009-12-08T17:56:11Z</time>
      </trkpt>
      <trkpt lat="50.710669" lon="6.197298">
        <ele>0.000000</ele>
        <time>2009-12-08T17:56:11Z</time>
      </trkpt>
      <trkpt lat="50.710863" lon="6.197244">
        <ele>0.000000</ele>
        <time>2009-12-08T17:56:11Z</time>
      </trkpt>
      <trkpt lat="50.711376" lon="6.197298">
        <ele>0.000000</ele>
        <time>2009-12-08T17:56:11Z</time>
      </trkpt>
      <trkpt lat="50.711512" lon="6.196386">
        <ele>0.000000</ele>
        <time>2009-12-08T17:56:11Z</time>
      </trkpt>
      <trkpt lat="50.711495" lon="6.196155">
        <ele>0.000000</ele>
        <time>2009-12-08T17:56:11Z</time>
      </trkpt>
      <trkpt lat="50.711491" lon="6.195822">
        <ele>0.000000</ele>
        <time>2009-12-08T17:56:11Z</time>
      </trkpt>
      <trkpt lat="50.711726" lon="6.195581">
        <ele>0.000000</ele>
        <time>2009-12-08T17:56:11Z</time>
      </trkpt>
      <trkpt lat="50.711855" lon="6.195490">
        <ele>0.000000</ele>
        <time>2009-12-08T17:56:11Z</time>
      </trkpt>
      <trkpt lat="50.712188" lon="6.195404">
        <ele>0.000000</ele>
        <time>2009-12-08T17:56:11Z</time>
      </trkpt>
      <trkpt lat="50.712425" lon="6.195881">
        <ele>0.000000</ele>
        <time>2009-12-08T17:56:11Z</time>
      </trkpt>
      <trkpt lat="50.712755" lon="6.196273">
        <ele>0.000000</ele>
        <time>2009-12-08T17:56:11Z</time>
      </trkpt>
      <trkpt lat="50.713203" lon="6.196407">
        <ele>0.000000</ele>
        <time>2009-12-08T17:56:11Z</time>
      </trkpt>
      <trkpt lat="50.713390" lon="6.196048">
        <ele>0.000000</ele>
        <time>2009-12-08T17:56:11Z</time>
      </trkpt>
      <trkpt lat="50.713553" lon="6.196005">
        <ele>0.000000</ele>
        <time>2009-12-08T17:56:11Z</time>
      </trkpt>
      <trkpt lat="50.713801" lon="6.196198">
        <ele>0.000000</ele>
        <time>2009-12-08T17:56:11Z</time>
      </trkpt>
      <trkpt lat="50.714300" lon="6.196370">
        <ele>0.000000</ele>
        <time>2009-12-08T17:56:11Z</time>
      </trkpt>
      <trkpt lat="50.714881" lon="6.196445">
        <ele>0.000000</ele>
        <time>2009-12-08T17:56:11Z</time>
      </trkpt>
      <trkpt lat="50.715357" lon="6.196284">
        <ele>0.000000</ele>
        <time>2009-12-08T17:56:11Z</time>
      </trkpt>
      <trkpt lat="50.715934" lon="6.196568">
        <ele>0.000000</ele>
        <time>2009-12-08T17:56:11Z</time>
      </trkpt>
      <trkpt lat="50.716345" lon="6.196530">
        <ele>0.000000</ele>
        <time>2009-12-08T17:56:11Z</time>
      </trkpt>
      <trkpt lat="50.716444" lon="6.196445">
        <ele>0.000000</ele>
        <time>2009-12-08T17:56:11Z</time>
      </trkpt>
      <trkpt lat="50.716685" lon="6.196386">
        <ele>0.000000</ele>
        <time>2009-12-08T17:56:11Z</time>
      </trkpt>
      <trkpt lat="50.717833" lon="6.196353">
        <ele>0.000000</ele>
        <time>2009-12-08T17:56:11Z</time>
      </trkpt>
      <trkpt lat="50.718380" lon="6.196182">
        <ele>0.000000</ele>
        <time>2009-12-08T17:56:11Z</time>
      </trkpt>
      <trkpt lat="50.719928" lon="6.196203">
        <ele>0.000000</ele>
        <time>2009-12-08T17:56:11Z</time>
      </trkpt>
      <trkpt lat="50.720146" lon="6.196343">
        <ele>0.000000</ele>
        <time>2009-12-08T17:56:11Z</time>
      </trkpt>
      <trkpt lat="50.720326" lon="6.196477">
        <ele>0.000000</ele>
        <time>2009-12-08T17:56:11Z</time>
      </trkpt>
      <trkpt lat="50.720767" lon="6.196707">
        <ele>0.000000</ele>
        <time>2009-12-08T17:56:11Z</time>
      </trkpt>
      <trkpt lat="50.720961" lon="6.196718">
        <ele>0.000000</ele>
        <time>2009-12-08T17:56:11Z</time>
      </trkpt>
      <trkpt lat="50.721076" lon="6.196659">
        <ele>0.000000</ele>
        <time>2009-12-08T17:56:11Z</time>
      </trkpt>
      <trkpt lat="50.721134" lon="6.196498">
        <ele>0.000000</ele>
        <time>2009-12-08T17:56:11Z</time>
      </trkpt>
      <trkpt lat="50.721188" lon="6.196235">
        <ele>0.000000</ele>
        <time>2009-12-08T17:56:11Z</time>
      </trkpt>
      <trkpt lat="50.721158" lon="6.195812">
        <ele>0.000000</ele>
        <time>2009-12-08T17:56:11Z</time>
      </trkpt>
      <trkpt lat="50.721260" lon="6.194996">
        <ele>0.000000</ele>
        <time>2009-12-08T17:56:11Z</time>
      </trkpt>
      <trkpt lat="50.721144" lon="6.194578">
        <ele>0.000000</ele>
        <time>2009-12-08T17:56:11Z</time>
      </trkpt>
      <trkpt lat="50.721148" lon="6.194449">
        <ele>0.000000</ele>
        <time>2009-12-08T17:56:11Z</time>
      </trkpt>
      <trkpt lat="50.721239" lon="6.194138">
        <ele>0.000000</ele>
        <time>2009-12-08T17:56:11Z</time>
      </trkpt>
      <trkpt lat="50.721698" lon="6.193392">
        <ele>0.000000</ele>
        <time>2009-12-08T17:56:11Z</time>
      </trkpt>
      <trkpt lat="50.721755" lon="6.193151">
        <ele>0.000000</ele>
        <time>2009-12-08T17:56:11Z</time>
      </trkpt>
      <trkpt lat="50.722054" lon="6.192609">
        <ele>0.000000</ele>
        <time>2009-12-08T17:56:11Z</time>
      </trkpt>
      <trkpt lat="50.722306" lon="6.192132">
        <ele>0.000000</ele>
        <time>2009-12-08T17:56:11Z</time>
      </trkpt>
      <trkpt lat="50.722598" lon="6.191778">
        <ele>0.000000</ele>
        <time>2009-12-08T17:56:11Z</time>
      </trkpt>
      <trkpt lat="50.722876" lon="6.191702">
        <ele>0.000000</ele>
        <time>2009-12-08T17:56:11Z</time>
      </trkpt>
      <trkpt lat="50.723848" lon="6.191236">
        <ele>0.000000</ele>
        <time>2009-12-08T17:56:11Z</time>
      </trkpt>
      <trkpt lat="50.724601" lon="6.190893">
        <ele>0.000000</ele>
        <time>2009-12-08T17:56:11Z</time>
      </trkpt>
      <trkpt lat="50.724737" lon="6.190748">
        <ele>0.000000</ele>
        <time>2009-12-08T17:56:11Z</time>
      </trkpt>
      <trkpt lat="50.724944" lon="6.190297">
        <ele>0.000000</ele>
        <time>2009-12-08T17:56:11Z</time>
      </trkpt>
      <trkpt lat="50.725070" lon="6.189782">
        <ele>0.000000</ele>
        <time>2009-12-08T17:56:11Z</time>
      </trkpt>
      <trkpt lat="50.725437" lon="6.189106">
        <ele>0.000000</ele>
        <time>2009-12-08T17:56:11Z</time>
      </trkpt>
      <trkpt lat="50.725661" lon="6.188682">
        <ele>0.000000</ele>
        <time>2009-12-08T17:56:11Z</time>
      </trkpt>
      <trkpt lat="50.725831" lon="6.187985">
        <ele>0.000000</ele>
        <time>2009-12-08T17:56:11Z</time>
      </trkpt>
      <trkpt lat="50.726085" lon="6.187325">
        <ele>0.000000</ele>
        <time>2009-12-08T17:56:11Z</time>
      </trkpt>
      <trkpt lat="50.726164" lon="6.187164">
        <ele>0.000000</ele>
        <time>2009-12-08T17:56:11Z</time>
      </trkpt>
      <trkpt lat="50.726524" lon="6.187073">
        <ele>0.000000</ele>
        <time>2009-12-08T17:56:11Z</time>
      </trkpt>
      <trkpt lat="50.726822" lon="6.186697">
        <ele>0.000000</ele>
        <time>2009-12-08T17:56:11Z</time>
      </trkpt>
      <trkpt lat="50.726965" lon="6.186521">
        <ele>0.000000</ele>
        <time>2009-12-08T17:56:11Z</time>
      </trkpt>
      <trkpt lat="50.727362" lon="6.186392">
        <ele>0.000000</ele>
        <time>2009-12-08T17:56:11Z</time>
      </trkpt>
      <trkpt lat="50.728035" lon="6.185308">
        <ele>0.000000</ele>
        <time>2009-12-08T17:56:11Z</time>
      </trkpt>
      <trkpt lat="50.728191" lon="6.184605">
        <ele>0.000000</ele>
        <time>2009-12-08T17:56:11Z</time>
      </trkpt>
      <trkpt lat="50.728201" lon="6.184428">
        <ele>0.000000</ele>
        <time>2009-12-08T17:56:11Z</time>
      </trkpt>
      <trkpt lat="50.727953" lon="6.183527">
        <ele>0.000000</ele>
        <time>2009-12-08T17:56:11Z</time>
      </trkpt>
      <trkpt lat="50.727939" lon="6.183050">
        <ele>0.000000</ele>
        <time>2009-12-08T17:56:11Z</time>
      </trkpt>
      <trkpt lat="50.727902" lon="6.182669">
        <ele>0.000000</ele>
        <time>2009-12-08T17:56:11Z</time>
      </trkpt>
      <trkpt lat="50.727909" lon="6.182025">
        <ele>0.000000</ele>
        <time>2009-12-08T17:56:11Z</time>
      </trkpt>
      <trkpt lat="50.728007" lon="6.181564">
        <ele>0.000000</ele>
        <time>2009-12-08T17:56:11Z</time>
      </trkpt>
      <trkpt lat="50.728242" lon="6.181000">
        <ele>0.000000</ele>
        <time>2009-12-08T17:56:11Z</time>
      </trkpt>
      <trkpt lat="50.728537" lon="6.180405">
        <ele>0.000000</ele>
        <time>2009-12-08T17:56:11Z</time>
      </trkpt>
      <trkpt lat="50.728717" lon="6.180174">
        <ele>0.000000</ele>
        <time>2009-12-08T17:56:11Z</time>
      </trkpt>
      <trkpt lat="50.729002" lon="6.179885">
        <ele>0.000000</ele>
        <time>2009-12-08T17:56:11Z</time>
      </trkpt>
      <trkpt lat="50.729529" lon="6.179515">
        <ele>0.000000</ele>
        <time>2009-12-08T17:56:11Z</time>
      </trkpt>
      <trkpt lat="50.729597" lon="6.179418">
        <ele>0.000000</ele>
        <time>2009-12-08T17:56:11Z</time>
      </trkpt>
      <trkpt lat="50.729179" lon="6.178560">
        <ele>0.000000</ele>
        <time>2009-12-08T17:56:11Z</time>
      </trkpt>
      <trkpt lat="50.728948" lon="6.178055">
        <ele>0.000000</ele>
        <time>2009-12-08T17:56:11Z</time>
      </trkpt>
      <trkpt lat="50.729121" lon="6.177578">
        <ele>0.000000</ele>
        <time>2009-12-08T17:56:11Z</time>
      </trkpt>
      <trkpt lat="50.729230" lon="6.177235">
        <ele>0.000000</ele>
        <time>2009-12-08T17:56:11Z</time>
      </trkpt>
      <trkpt lat="50.729332" lon="6.176693">
        <ele>0.000000</ele>
        <time>2009-12-08T17:56:11Z</time>
      </trkpt>
      <trkpt lat="50.729417" lon="6.176226">
        <ele>0.000000</ele>
        <time>2009-12-08T17:56:11Z</time>
      </trkpt>
      <trkpt lat="50.729501" lon="6.175550">
        <ele>0.000000</ele>
        <time>2009-12-08T17:56:11Z</time>
      </trkpt>
      <trkpt lat="50.729569" lon="6.175121">
        <ele>0.000000</ele>
        <time>2009-12-08T17:56:11Z</time>
      </trkpt>
      <trkpt lat="50.729641" lon="6.174681">
        <ele>0.000000</ele>
        <time>2009-12-08T17:56:11Z</time>
      </trkpt>
      <trkpt lat="50.729736" lon="6.173850">
        <ele>0.000000</ele>
        <time>2009-12-08T17:56:11Z</time>
      </trkpt>
      <trkpt lat="50.729906" lon="6.172020">
        <ele>0.000000</ele>
        <time>2009-12-08T17:56:11Z</time>
      </trkpt>
      <trkpt lat="50.729936" lon="6.170213">
        <ele>0.000000</ele>
        <time>2009-12-08T17:56:11Z</time>
      </trkpt>
      <trkpt lat="50.729974" lon="6.168040">
        <ele>0.000000</ele>
        <time>2009-12-08T17:56:11Z</time>
      </trkpt>
      <trkpt lat="50.730001" lon="6.167584">
        <ele>0.000000</ele>
        <time>2009-12-08T17:56:11Z</time>
      </trkpt>
      <trkpt lat="50.730245" lon="6.166388">
        <ele>0.000000</ele>
        <time>2009-12-08T17:56:11Z</time>
      </trkpt>
      <trkpt lat="50.730510" lon="6.165170">
        <ele>0.000000</ele>
        <time>2009-12-08T17:56:11Z</time>
      </trkpt>
      <trkpt lat="50.730592" lon="6.165090">
        <ele>0.000000</ele>
        <time>2009-12-08T17:56:11Z</time>
      </trkpt>
      <trkpt lat="50.730700" lon="6.164768">
        <ele>0.000000</ele>
        <time>2009-12-08T17:56:11Z</time>
      </trkpt>
      <trkpt lat="50.730666" lon="6.164607">
        <ele>0.000000</ele>
        <time>2009-12-08T17:56:11Z</time>
      </trkpt>
      <trkpt lat="50.730466" lon="6.163947">
        <ele>0.000000</ele>
        <time>2009-12-08T17:56:11Z</time>
      </trkpt>
      <trkpt lat="50.730333" lon="6.163362">
        <ele>0.000000</ele>
        <time>2009-12-08T17:56:11Z</time>
      </trkpt>
      <trkpt lat="50.730313" lon="6.162842">
        <ele>0.000000</ele>
        <time>2009-12-08T17:56:11Z</time>
      </trkpt>
      <trkpt lat="50.730344" lon="6.162204">
        <ele>0.000000</ele>
        <time>2009-12-08T17:56:11Z</time>
      </trkpt>
      <trkpt lat="50.730354" lon="6.161528">
        <ele>0.000000</ele>
        <time>2009-12-08T17:56:11Z</time>
      </trkpt>
      <trkpt lat="50.730449" lon="6.160514">
        <ele>0.000000</ele>
        <time>2009-12-08T17:56:11Z</time>
      </trkpt>
      <trkpt lat="50.730483" lon="6.160160">
        <ele>0.000000</ele>
        <time>2009-12-08T17:56:11Z</time>
      </trkpt>
      <trkpt lat="50.730544" lon="6.159886">
        <ele>0.000000</ele>
        <time>2009-12-08T17:56:11Z</time>
      </trkpt>
      <trkpt lat="50.730792" lon="6.159296">
        <ele>0.000000</ele>
        <time>2009-12-08T17:56:11Z</time>
      </trkpt>
      <trkpt lat="50.730934" lon="6.158636">
        <ele>0.000000</ele>
        <time>2009-12-08T17:56:11Z</time>
      </trkpt>
      <trkpt lat="50.730921" lon="6.158127">
        <ele>0.000000</ele>
        <time>2009-12-08T17:56:11Z</time>
      </trkpt>
      <trkpt lat="50.730941" lon="6.157901">
        <ele>0.000000</ele>
        <time>2009-12-08T17:56:11Z</time>
      </trkpt>
      <trkpt lat="50.730992" lon="6.157671">
        <ele>0.000000</ele>
        <time>2009-12-08T17:56:11Z</time>
      </trkpt>
      <trkpt lat="50.731400" lon="6.156635">
        <ele>0.000000</ele>
        <time>2009-12-08T17:56:11Z</time>
      </trkpt>
      <trkpt lat="50.731444" lon="6.156351">
        <ele>0.000000</ele>
        <time>2009-12-08T17:56:11Z</time>
      </trkpt>
      <trkpt lat="50.731563" lon="6.155557">
        <ele>0.000000</ele>
        <time>2009-12-08T17:56:11Z</time>
      </trkpt>
      <trkpt lat="50.731607" lon="6.155257">
        <ele>0.000000</ele>
        <time>2009-12-08T17:56:11Z</time>
      </trkpt>
      <trkpt lat="50.731729" lon="6.154666">
        <ele>0.000000</ele>
        <time>2009-12-08T17:56:11Z</time>
      </trkpt>
      <trkpt lat="50.731736" lon="6.154495">
        <ele>0.000000</ele>
        <time>2009-12-08T17:56:11Z</time>
      </trkpt>
      <trkpt lat="50.731678" lon="6.154039">
        <ele>0.000000</ele>
        <time>2009-12-08T17:56:11Z</time>
      </trkpt>
      <trkpt lat="50.731637" lon="6.153749">
        <ele>0.000000</ele>
        <time>2009-12-08T17:56:11Z</time>
      </trkpt>
      <trkpt lat="50.731637" lon="6.153545">
        <ele>0.000000</ele>
        <time>2009-12-08T17:56:11Z</time>
      </trkpt>
      <trkpt lat="50.731705" lon="6.153266">
        <ele>0.000000</ele>
        <time>2009-12-08T17:56:11Z</time>
      </trkpt>
      <trkpt lat="50.731807" lon="6.153014">
        <ele>0.000000</ele>
        <time>2009-12-08T17:56:11Z</time>
      </trkpt>
      <trkpt lat="50.731899" lon="6.152751">
        <ele>0.000000</ele>
        <time>2009-12-08T17:56:11Z</time>
      </trkpt>
      <trkpt lat="50.732011" lon="6.152145">
        <ele>0.000000</ele>
        <time>2009-12-08T17:56:11Z</time>
      </trkpt>
      <trkpt lat="50.732051" lon="6.151330">
        <ele>0.000000</ele>
        <time>2009-12-08T17:56:11Z</time>
      </trkpt>
      <trkpt lat="50.731990" lon="6.150912">
        <ele>0.000000</ele>
        <time>2009-12-08T17:56:11Z</time>
      </trkpt>
      <trkpt lat="50.732007" lon="6.150595">
        <ele>0.000000</ele>
        <time>2009-12-08T17:56:11Z</time>
      </trkpt>
      <trkpt lat="50.732048" lon="6.150225">
        <ele>0.000000</ele>
        <time>2009-12-08T17:56:11Z</time>
      </trkpt>
      <trkpt lat="50.732198" lon="6.149645">
        <ele>0.000000</ele>
        <time>2009-12-08T17:56:11Z</time>
      </trkpt>
      <trkpt lat="50.732330" lon="6.148793">
        <ele>0.000000</ele>
        <time>2009-12-08T17:56:11Z</time>
      </trkpt>
      <trkpt lat="50.732439" lon="6.148439">
        <ele>0.000000</ele>
        <time>2009-12-08T17:56:11Z</time>
      </trkpt>
      <trkpt lat="50.732965" lon="6.147307">
        <ele>0.000000</ele>
        <time>2009-12-08T17:56:11Z</time>
      </trkpt>
      <trkpt lat="50.733335" lon="6.146330">
        <ele>0.000000</ele>
        <time>2009-12-08T17:56:11Z</time>
      </trkpt>
      <trkpt lat="50.733790" lon="6.145263">
        <ele>0.000000</ele>
        <time>2009-12-08T17:56:11Z</time>
      </trkpt>
      <trkpt lat="50.733593" lon="6.144463">
        <ele>0.000000</ele>
        <time>2009-12-08T17:56:11Z</time>
      </trkpt>
      <trkpt lat="50.733145" lon="6.142763">
        <ele>0.000000</ele>
        <time>2009-12-08T17:56:11Z</time>
      </trkpt>
      <trkpt lat="50.733077" lon="6.142414">
        <ele>0.000000</ele>
        <time>2009-12-08T17:56:11Z</time>
      </trkpt>
      <trkpt lat="50.733172" lon="6.142007">
        <ele>0.000000</ele>
        <time>2009-12-08T17:56:11Z</time>
      </trkpt>
      <trkpt lat="50.733552" lon="6.140102">
        <ele>0.000000</ele>
        <time>2009-12-08T17:56:11Z</time>
      </trkpt>
      <trkpt lat="50.733562" lon="6.139925">
        <ele>0.000000</ele>
        <time>2009-12-08T17:56:11Z</time>
      </trkpt>
      <trkpt lat="50.733590" lon="6.139684">
        <ele>0.000000</ele>
        <time>2009-12-08T17:56:11Z</time>
      </trkpt>
      <trkpt lat="50.733613" lon="6.139399">
        <ele>0.000000</ele>
        <time>2009-12-08T17:56:11Z</time>
      </trkpt>
      <trkpt lat="50.733719" lon="6.138820">
        <ele>0.000000</ele>
        <time>2009-12-08T17:56:11Z</time>
      </trkpt>
      <trkpt lat="50.733888" lon="6.138428">
        <ele>0.000000</ele>
        <time>2009-12-08T17:56:11Z</time>
      </trkpt>
      <trkpt lat="50.734136" lon="6.137747">
        <ele>0.000000</ele>
        <time>2009-12-08T17:56:11Z</time>
      </trkpt>
      <trkpt lat="50.734289" lon="6.137286">
        <ele>0.000000</ele>
        <time>2009-12-08T17:56:11Z</time>
      </trkpt>
      <trkpt lat="50.734449" lon="6.136841">
        <ele>0.000000</ele>
        <time>2009-12-08T17:56:11Z</time>
      </trkpt>
      <trkpt lat="50.734615" lon="6.136352">
        <ele>0.000000</ele>
        <time>2009-12-08T17:56:11Z</time>
      </trkpt>
      <trkpt lat="50.734859" lon="6.135070">
        <ele>0.000000</ele>
        <time>2009-12-08T17:56:11Z</time>
      </trkpt>
      <trkpt lat="50.735016" lon="6.134598">
        <ele>0.000000</ele>
        <time>2009-12-08T17:56:11Z</time>
      </trkpt>
      <trkpt lat="50.735253" lon="6.134056">
        <ele>0.000000</ele>
        <time>2009-12-08T17:56:11Z</time>
      </trkpt>
      <trkpt lat="50.735579" lon="6.133311">
        <ele>0.000000</ele>
        <time>2009-12-08T17:56:11Z</time>
      </trkpt>
      <trkpt lat="50.735705" lon="6.133010">
        <ele>0.000000</ele>
        <time>2009-12-08T17:56:11Z</time>
      </trkpt>
      <trkpt lat="50.734982" lon="6.132072">
        <ele>0.000000</ele>
        <time>2009-12-08T17:56:11Z</time>
      </trkpt>
      <trkpt lat="50.734405" lon="6.131331">
        <ele>0.000000</ele>
        <time>2009-12-08T17:56:11Z</time>
      </trkpt>
      <trkpt lat="50.733895" lon="6.130800">
        <ele>0.000000</ele>
        <time>2009-12-08T17:56:11Z</time>
      </trkpt>
      <trkpt lat="50.733664" lon="6.130409">
        <ele>0.000000</ele>
        <time>2009-12-08T17:56:11Z</time>
      </trkpt>
      <trkpt lat="50.733376" lon="6.129819">
        <ele>0.000000</ele>
        <time>2009-12-08T17:56:11Z</time>
      </trkpt>
      <trkpt lat="50.733182" lon="6.129320">
        <ele>0.000000</ele>
        <time>2009-12-08T17:56:11Z</time>
      </trkpt>
      <trkpt lat="50.732805" lon="6.128526">
        <ele>0.000000</ele>
        <time>2009-12-08T17:56:11Z</time>
      </trkpt>
      <trkpt lat="50.733138" lon="6.128333">
        <ele>0.000000</ele>
        <time>2009-12-08T17:56:11Z</time>
      </trkpt>
      <trkpt lat="50.734031" lon="6.128150">
        <ele>0.000000</ele>
        <time>2009-12-08T17:56:11Z</time>
      </trkpt>
      <trkpt lat="50.734500" lon="6.127920">
        <ele>0.000000</ele>
        <time>2009-12-08T17:56:11Z</time>
      </trkpt>
      <trkpt lat="50.735097" lon="6.127292">
        <ele>0.000000</ele>
        <time>2009-12-08T17:56:11Z</time>
      </trkpt>
      <trkpt lat="50.735834" lon="6.125881">
        <ele>0.000000</ele>
        <time>2009-12-08T17:56:11Z</time>
      </trkpt>
      <trkpt lat="50.736194" lon="6.125205">
        <ele>0.000000</ele>
        <time>2009-12-08T17:56:11Z</time>
      </trkpt>
      <trkpt lat="50.736316" lon="6.125007">
        <ele>0.000000</ele>
        <time>2009-12-08T17:56:11Z</time>
      </trkpt>
      <trkpt lat="50.736734" lon="6.124567">
        <ele>0.000000</ele>
        <time>2009-12-08T17:56:11Z</time>
      </trkpt>
      <trkpt lat="50.736852" lon="6.124025">
        <ele>0.000000</ele>
        <time>2009-12-08T17:56:11Z</time>
      </trkpt>
      <trkpt lat="50.736941" lon="6.123108">
        <ele>0.000000</ele>
        <time>2009-12-08T17:56:11Z</time>
      </trkpt>
      <trkpt lat="50.736879" lon="6.122555">
        <ele>0.000000</ele>
        <time>2009-12-08T17:56:11Z</time>
      </trkpt>
      <trkpt lat="50.736598" lon="6.121799">
        <ele>0.000000</ele>
        <time>2009-12-08T17:56:11Z</time>
      </trkpt>
      <trkpt lat="50.736784" lon="6.120254">
        <ele>0.000000</ele>
        <time>2009-12-08T17:56:11Z</time>
      </trkpt>
      <trkpt lat="50.736924" lon="6.118779">
        <ele>0.000000</ele>
        <time>2009-12-08T17:56:11Z</time>
      </trkpt>
      <trkpt lat="50.737630" lon="6.118848">
        <ele>0.000000</ele>
        <time>2009-12-08T17:56:11Z</time>
      </trkpt>
      <trkpt lat="50.738132" lon="6.119074">
        <ele>0.000000</ele>
        <time>2009-12-08T17:56:11Z</time>
      </trkpt>
      <trkpt lat="50.738472" lon="6.119412">
        <ele>0.000000</ele>
        <time>2009-12-08T17:56:11Z</time>
      </trkpt>
      <trkpt lat="50.738879" lon="6.119782">
        <ele>0.000000</ele>
        <time>2009-12-08T17:56:11Z</time>
      </trkpt>
      <trkpt lat="50.739059" lon="6.119980">
        <ele>0.000000</ele>
        <time>2009-12-08T17:56:11Z</time>
      </trkpt>
      <trkpt lat="50.739263" lon="6.119642">
        <ele>0.000000</ele>
        <time>2009-12-08T17:56:11Z</time>
      </trkpt>
      <trkpt lat="50.739528" lon="6.119632">
        <ele>0.000000</ele>
        <time>2009-12-08T17:56:11Z</time>
      </trkpt>
      <trkpt lat="50.739728" lon="6.119766">
        <ele>0.000000</ele>
        <time>2009-12-08T17:56:11Z</time>
      </trkpt>
      <trkpt lat="50.740057" lon="6.119669">
        <ele>0.000000</ele>
        <time>2009-12-08T17:56:11Z</time>
      </trkpt>
      <trkpt lat="50.740546" lon="6.118559">
        <ele>0.000000</ele>
        <time>2009-12-08T17:56:11Z</time>
      </trkpt>
      <trkpt lat="50.741018" lon="6.118253">
        <ele>0.000000</ele>
        <time>2009-12-08T17:56:11Z</time>
      </trkpt>
      <trkpt lat="50.741239" lon="6.117899">
        <ele>0.000000</ele>
        <time>2009-12-08T17:56:11Z</time>
      </trkpt>
      <trkpt lat="50.741497" lon="6.117212">
        <ele>0.000000</ele>
        <time>2009-12-08T17:56:11Z</time>
      </trkpt>
      <trkpt lat="50.741761" lon="6.115785">
        <ele>0.000000</ele>
        <time>2009-12-08T17:56:11Z</time>
      </trkpt>
      <trkpt lat="50.741870" lon="6.115007">
        <ele>0.000000</ele>
        <time>2009-12-08T17:56:11Z</time>
      </trkpt>
      <trkpt lat="50.742226" lon="6.114578">
        <ele>0.000000</ele>
        <time>2009-12-08T17:56:11Z</time>
      </trkpt>
      <trkpt lat="50.742389" lon="6.114069">
        <ele>0.000000</ele>
        <time>2009-12-08T17:56:11Z</time>
      </trkpt>
      <trkpt lat="50.742488" lon="6.113940">
        <ele>0.000000</ele>
        <time>2009-12-08T17:56:11Z</time>
      </trkpt>
      <trkpt lat="50.742488" lon="6.113849">
        <ele>0.000000</ele>
        <time>2009-12-08T17:56:11Z</time>
      </trkpt>
      <trkpt lat="50.742220" lon="6.113205">
        <ele>0.000000</ele>
        <time>2009-12-08T17:56:11Z</time>
      </trkpt>
      <trkpt lat="50.741558" lon="6.111606">
        <ele>0.000000</ele>
        <time>2009-12-08T17:56:11Z</time>
      </trkpt>
      <trkpt lat="50.740763" lon="6.109718">
        <ele>0.000000</ele>
        <time>2009-12-08T17:56:11Z</time>
      </trkpt>
      <trkpt lat="50.740179" lon="6.108286">
        <ele>0.000000</ele>
        <time>2009-12-08T17:56:11Z</time>
      </trkpt>
      <trkpt lat="50.739966" lon="6.107776">
        <ele>0.000000</ele>
        <time>2009-12-08T17:56:11Z</time>
      </trkpt>
      <trkpt lat="50.739626" lon="6.106800">
        <ele>0.000000</ele>
        <time>2009-12-08T17:56:11Z</time>
      </trkpt>
      <trkpt lat="50.739008" lon="6.105276">
        <ele>0.000000</ele>
        <time>2009-12-08T17:56:11Z</time>
      </trkpt>
      <trkpt lat="50.738193" lon="6.103254">
        <ele>0.000000</ele>
        <time>2009-12-08T17:56:11Z</time>
      </trkpt>
      <trkpt lat="50.737385" lon="6.101210">
        <ele>0.000000</ele>
        <time>2009-12-08T17:56:11Z</time>
      </trkpt>
      <trkpt lat="50.736530" lon="6.099032">
        <ele>0.000000</ele>
        <time>2009-12-08T17:56:11Z</time>
      </trkpt>
      <trkpt lat="50.736734" lon="6.098737">
        <ele>0.000000</ele>
        <time>2009-12-08T17:56:11Z</time>
      </trkpt>
      <trkpt lat="50.736852" lon="6.098281">
        <ele>0.000000</ele>
        <time>2009-12-08T17:56:11Z</time>
      </trkpt>
      <trkpt lat="50.737267" lon="6.097959">
        <ele>0.000000</ele>
        <time>2009-12-08T17:56:11Z</time>
      </trkpt>
      <trkpt lat="50.738495" lon="6.096607">
        <ele>0.000000</ele>
        <time>2009-12-08T17:56:11Z</time>
      </trkpt>
      <trkpt lat="50.738557" lon="6.096017">
        <ele>0.000000</ele>
        <time>2009-12-08T17:56:11Z</time>
      </trkpt>
      <trkpt lat="50.738597" lon="6.094617">
        <ele>0.000000</ele>
        <time>2009-12-08T17:56:11Z</time>
      </trkpt>
      <trkpt lat="50.738815" lon="6.093196">
        <ele>0.000000</ele>
        <time>2009-12-08T17:56:11Z</time>
      </trkpt>
      <trkpt lat="50.738788" lon="6.091334">
        <ele>0.000000</ele>
        <time>2009-12-08T17:56:11Z</time>
      </trkpt>
      <trkpt lat="50.738679" lon="6.090690">
        <ele>0.000000</ele>
        <time>2009-12-08T17:56:11Z</time>
      </trkpt>
      <trkpt lat="50.739144" lon="6.090229">
        <ele>0.000000</ele>
        <time>2009-12-08T17:56:11Z</time>
      </trkpt>
      <trkpt lat="50.739483" lon="6.089773">
        <ele>0.000000</ele>
        <time>2009-12-08T17:56:11Z</time>
      </trkpt>
      <trkpt lat="50.739966" lon="6.088958">
        <ele>0.000000</ele>
        <time>2009-12-08T17:56:11Z</time>
      </trkpt>
      <trkpt lat="50.739541" lon="6.088432">
        <ele>0.000000</ele>
        <time>2009-12-08T17:56:11Z</time>
      </trkpt>
      <trkpt lat="50.739643" lon="6.087708">
        <ele>0.000000</ele>
        <time>2009-12-08T17:56:11Z</time>
      </trkpt>
      <trkpt lat="50.739507" lon="6.087263">
        <ele>0.000000</ele>
        <time>2009-12-08T17:56:11Z</time>
      </trkpt>
      <trkpt lat="50.739517" lon="6.086614">
        <ele>0.000000</ele>
        <time>2009-12-08T17:56:11Z</time>
      </trkpt>
      <trkpt lat="50.739551" lon="6.086045">
        <ele>0.000000</ele>
        <time>2009-12-08T17:56:11Z</time>
      </trkpt>
      <trkpt lat="50.739755" lon="6.085364">
        <ele>0.000000</ele>
        <time>2009-12-08T17:56:11Z</time>
      </trkpt>
      <trkpt lat="50.739830" lon="6.084961">
        <ele>0.000000</ele>
        <time>2009-12-08T17:56:11Z</time>
      </trkpt>
      <trkpt lat="50.740142" lon="6.084403">
        <ele>0.000000</ele>
        <time>2009-12-08T17:56:11Z</time>
      </trkpt>
      <trkpt lat="50.740227" lon="6.084076">
        <ele>0.000000</ele>
        <time>2009-12-08T17:56:11Z</time>
      </trkpt>
      <trkpt lat="50.740176" lon="6.083599">
        <ele>0.000000</ele>
        <time>2009-12-08T17:56:11Z</time>
      </trkpt>
      <trkpt lat="50.740298" lon="6.083212">
        <ele>0.000000</ele>
        <time>2009-12-08T17:56:11Z</time>
      </trkpt>
      <trkpt lat="50.740336" lon="6.082864">
        <ele>0.000000</ele>
        <time>2009-12-08T17:56:11Z</time>
      </trkpt>
      <trkpt lat="50.740621" lon="6.082285">
        <ele>0.000000</ele>
        <time>2009-12-08T17:56:11Z</time>
      </trkpt>
      <trkpt lat="50.740723" lon="6.081995">
        <ele>0.000000</ele>
        <time>2009-12-08T17:56:11Z</time>
      </trkpt>
      <trkpt lat="50.741103" lon="6.081415">
        <ele>0.000000</ele>
        <time>2009-12-08T17:56:11Z</time>
      </trkpt>
      <trkpt lat="50.741344" lon="6.081093">
        <ele>0.000000</ele>
        <time>2009-12-08T17:56:11Z</time>
      </trkpt>
      <trkpt lat="50.741612" lon="6.080815">
        <ele>0.000000</ele>
        <time>2009-12-08T17:56:11Z</time>
      </trkpt>
      <trkpt lat="50.742131" lon="6.080359">
        <ele>0.000000</ele>
        <time>2009-12-08T17:56:11Z</time>
      </trkpt>
      <trkpt lat="50.742529" lon="6.080021">
        <ele>0.000000</ele>
        <time>2009-12-08T17:56:11Z</time>
      </trkpt>
      <trkpt lat="50.742770" lon="6.079704">
        <ele>0.000000</ele>
        <time>2009-12-08T17:56:11Z</time>
      </trkpt>
      <trkpt lat="50.742892" lon="6.079500">
        <ele>0.000000</ele>
        <time>2009-12-08T17:56:11Z</time>
      </trkpt>
      <trkpt lat="50.743051" lon="6.079114">
        <ele>0.000000</ele>
        <time>2009-12-08T17:56:11Z</time>
      </trkpt>
      <trkpt lat="50.743119" lon="6.078910">
        <ele>0.000000</ele>
        <time>2009-12-08T17:56:11Z</time>
      </trkpt>
      <trkpt lat="50.743153" lon="6.078674">
        <ele>0.000000</ele>
        <time>2009-12-08T17:56:11Z</time>
      </trkpt>
      <trkpt lat="50.743157" lon="6.078427">
        <ele>0.000000</ele>
        <time>2009-12-08T17:56:11Z</time>
      </trkpt>
      <trkpt lat="50.743102" lon="6.077870">
        <ele>0.000000</ele>
        <time>2009-12-08T17:56:11Z</time>
      </trkpt>
      <trkpt lat="50.743065" lon="6.077424">
        <ele>0.000000</ele>
        <time>2009-12-08T17:56:11Z</time>
      </trkpt>
      <trkpt lat="50.743065" lon="6.077188">
        <ele>0.000000</ele>
        <time>2009-12-08T17:56:11Z</time>
      </trkpt>
      <trkpt lat="50.743078" lon="6.076952">
        <ele>0.000000</ele>
        <time>2009-12-08T17:56:11Z</time>
      </trkpt>
      <trkpt lat="50.743191" lon="6.076706">
        <ele>0.000000</ele>
        <time>2009-12-08T17:56:11Z</time>
      </trkpt>
      <trkpt lat="50.743452" lon="6.076351">
        <ele>0.000000</ele>
        <time>2009-12-08T17:56:11Z</time>
      </trkpt>
      <trkpt lat="50.743554" lon="6.076180">
        <ele>0.000000</ele>
        <time>2009-12-08T17:56:11Z</time>
      </trkpt>
      <trkpt lat="50.743598" lon="6.075997">
        <ele>0.000000</ele>
        <time>2009-12-08T17:56:11Z</time>
      </trkpt>
      <trkpt lat="50.743611" lon="6.075702">
        <ele>0.000000</ele>
        <time>2009-12-08T17:56:11Z</time>
      </trkpt>
      <trkpt lat="50.743608" lon="6.075429">
        <ele>0.000000</ele>
        <time>2009-12-08T17:56:11Z</time>
      </trkpt>
      <trkpt lat="50.743628" lon="6.074935">
        <ele>0.000000</ele>
        <time>2009-12-08T17:56:11Z</time>
      </trkpt>
      <trkpt lat="50.743730" lon="6.074377">
        <ele>0.000000</ele>
        <time>2009-12-08T17:56:11Z</time>
      </trkpt>
      <trkpt lat="50.743781" lon="6.074061">
        <ele>0.000000</ele>
        <time>2009-12-08T17:56:11Z</time>
      </trkpt>
      <trkpt lat="50.743869" lon="6.073626">
        <ele>0.000000</ele>
        <time>2009-12-08T17:56:11Z</time>
      </trkpt>
      <trkpt lat="50.744066" lon="6.073315">
        <ele>0.000000</ele>
        <time>2009-12-08T17:56:11Z</time>
      </trkpt>
      <trkpt lat="50.744643" lon="6.072924">
        <ele>0.000000</ele>
        <time>2009-12-08T17:56:11Z</time>
      </trkpt>
      <trkpt lat="50.746300" lon="6.073406">
        <ele>0.000000</ele>
        <time>2009-12-08T17:56:11Z</time>
      </trkpt>
      <trkpt lat="50.746687" lon="6.073342">
        <ele>0.000000</ele>
        <time>2009-12-08T17:56:11Z</time>
      </trkpt>
      <trkpt lat="50.747590" lon="6.073219">
        <ele>0.000000</ele>
        <time>2009-12-08T17:56:11Z</time>
      </trkpt>
      <trkpt lat="50.748241" lon="6.073422">
        <ele>0.000000</ele>
        <time>2009-12-08T17:56:11Z</time>
      </trkpt>
      <trkpt lat="50.748808" lon="6.073143">
        <ele>0.000000</ele>
        <time>2009-12-08T17:56:11Z</time>
      </trkpt>
      <trkpt lat="50.749460" lon="6.072854">
        <ele>0.000000</ele>
        <time>2009-12-08T17:56:11Z</time>
      </trkpt>
      <trkpt lat="50.749942" lon="6.072639">
        <ele>0.000000</ele>
        <time>2009-12-08T17:56:11Z</time>
      </trkpt>
      <trkpt lat="50.750403" lon="6.072714">
        <ele>0.000000</ele>
        <time>2009-12-08T17:56:11Z</time>
      </trkpt>
      <trkpt lat="50.750444" lon="6.072752">
        <ele>0.000000</ele>
        <time>2009-12-08T17:56:11Z</time>
      </trkpt>
      <trkpt lat="50.750753" lon="6.071958">
        <ele>0.000000</ele>
        <time>2009-12-08T17:56:11Z</time>
      </trkpt>
      <trkpt lat="50.751466" lon="6.072586">
        <ele>0.000000</ele>
        <time>2009-12-08T17:56:11Z</time>
      </trkpt>
      <trkpt lat="50.751866" lon="6.072956">
        <ele>0.000000</ele>
        <time>2009-12-08T17:56:11Z</time>
      </trkpt>
      <trkpt lat="50.752806" lon="6.073830">
        <ele>0.000000</ele>
        <time>2009-12-08T17:56:11Z</time>
      </trkpt>
    </trkseg>
  </trk>

</gpx>
